Wind_Speed
37 36 33 32 31 29 27 26 24 25 29 31 31 33 34 34 34 34 34 36 37 37 39 41 44 46 46 47 48 50 51 52 53 55 57 59 61 62
37 36 34 32 31 30 28 28 27 26 26 30 33 34 34 33 33 34 35 36 38 40 40 42 44 46 48 49 50 52 54 54 54 56 58 61 64 66
37 36 32 30 29 29 28 28 30 31 31 33 34 34 31 31 32 34 35 38 39 41 42 43 45 46 48 49 50 52 54 55 55 55 56 57 60 65
37 35 34 30 29 29 29 31 32 32 32 31 31 31 32 33 33 34 36 39 40 43 45 45 47 48 49 49 50 50 49 46 39 38 38 35 37 43
35 34 33 31 30 30 31 30 32 30 30 31 32 34 35 34 35 37 38 40 43 45 44 44 44 42 42 38 33 29 30 30 32 35 37 39 37 36
35 34 32 32 31 30 31 32 30 31 31 34 36 36 37 39 40 41 42 45 46 41 33 33 30 27 22 24 26 27 28 31 34 35 36 37 37 36
35 34 33 33 34 35 34 32 33 34 35 36 38 39 42 42 43 45 45 44 39 29 29 21 19 19 21 23 25 28 31 32 32 32 32 33 35 36
34 34 34 34 35 35 35 36 38 40 38 39 42 44 45 46 46 45 42 35 28 25 20 16 18 19 21 22 24 23 22 21 21 21 22 24 26 28
35 34 33 35 36 39 38 40 42 44 45 45 45 47 48 46 43 39 32 25 24 17 18 18 18 17 19 17 16 16 15 16 17 17 18 19 21 23
34 33 32 33 36 38 40 42 44 45 47 49 49 47 43 38 34 29 23 23 19 13 16 18 16 16 14 14 14 15 16 17 16 16 17 17 18 19
37 35 36 38 38 38 40 42 45 48 50 49 44 40 36 33 26 20 19 18 16 14 14 14 14 17 12 14 15 16 17 18 16 16 17 18 19 20
37 36 38 40 43 45 47 48 50 51 49 45 40 32 27 21 14 15 19 16 12 12 13 14 11 15 17 14 15 17 18 19 20 19 19 18 18 20
38 40 40 42 44 47 51 52 52 50 46 38 29 20 13 11 12 15 17 15 14 14 12 14 16 14 16 18 16 15 15 16 18 18 18 18 18 19
40 40 41 43 44 48 52 51 48 41 30 21 15 11 11 12 14 17 15 13 13 13 15 14 15 16 16 18 19 17 17 16 17 18 18 18 19 20
40 42 44 46 48 52 50 43 28 22 18 15 12 12 12 13 15 16 12 11 12 13 14 15 14 15 17 18 19 19 18 18 17 18 18 18 19 21
43 45 46 48 51 51 40 21 23 24 18 14 14 14 15 15 14 11 10 11 12 15 17 15 15 16 16 17 17 18 19 19 18 18 20 19 19 19
43 46 48 48 48 38 21 25 24 20 17 17 16 15 14 14 14 11 10 11 12 14 17 18 17 17 17 17 17 16 18 18 17 17 18 19 17 19
44 47 48 46 33 21 25 25 22 19 17 17 16 15 14 13 12 12 13 13 14 16 16 16 16 18 18 20 17 16 16 15 15 14 14 17 16 16
45 45 46 31 20 25 25 23 22 19 18 17 16 16 15 14 13 14 15 15 16 17 18 17 16 16 18 20 22 16 16 14 14 14 13 14 14 14
43 45 36 20 24 25 24 23 21 21 19 18 17 16 16 15 16 17 16 16 17 18 20 20 19 19 18 17 20 20 17 16 15 13 12 12 12 13
41 42 23 23 25 26 25 23 21 20 20 20 19 18 18 18 19 18 18 18 17 18 19 21 21 22 21 21 19 18 19 16 14 12 10 9 9 10
41 30 20 24 27 25 23 21 21 22 21 20 19 19 19 19 18 19 19 19 20 19 19 19 20 21 20 19 18 17 15 14 13 9 7 6 6 7
37 20 21 25 26 25 23 23 24 22 21 21 20 19 18 18 19 18 18 18 18 18 19 19 19 19 19 20 20 19 16 13 9 10 5 1 3 6
Wind_Direction
322 321 319 318 314 311 310 308 305 302 302 300 297 295 293 291 289 288 287 285 282 277 275 274 275 276 273 272 271 271 270 270 269 268 267 266 265 264
322 318 319 318 316 314 313 310 305 302 298 296 296 296 295 294 294 292 289 286 284 283 280 278 275 273 273 273 273 272 270 269 269 270 270 269 267 266
325 319 318 317 314 312 310 307 307 307 305 303 301 298 298 297 295 293 291 288 286 283 279 276 274 273 273 273 273 273 274 274 273 273 272 273 272 269
325 321 319 318 314 312 308 305 306 306 304 303 300 299 299 297 296 295 294 293 291 288 284 281 276 274 273 271 271 271 270 269 268 264 265 269 280 282
323 320 320 317 314 312 309 307 308 309 308 306 304 302 302 300 299 300 298 297 298 292 285 281 279 278 276 274 269 263 263 265 266 270 272 274 278 285
322 320 318 314 314 313 309 311 311 310 309 307 304 305 303 302 301 301 302 301 300 296 287 280 281 273 269 265 267 267 269 273 274 272 272 273 275 279
321 320 317 315 315 314 312 312 312 311 308 306 305 304 304 304 303 302 303 302 300 295 290 283 273 273 274 274 275 276 277 275 274 273 273 273 274 276
319 319 317 316 313 312 314 314 312 309 309 305 305 305 303 303 301 299 298 297 293 294 279 273 275 279 280 279 280 278 277 279 278 276 276 278 281 281
321 318 319 316 314 315 315 312 310 309 309 308 306 304 302 300 298 297 295 289 290 278 279 282 286 281 280 276 275 276 275 281 282 284 289 294 292 288
319 320 318 313 311 311 310 309 308 307 307 306 306 304 301 299 296 292 285 289 282 271 276 284 283 283 278 276 274 271 276 286 285 286 295 302 301 298
323 323 320 316 312 310 309 308 308 309 308 307 306 303 299 295 292 284 286 286 276 273 279 281 274 276 273 272 278 273 279 289 290 292 293 299 305 308
322 321 321 317 317 316 314 313 313 311 311 310 308 305 299 293 287 289 297 281 270 279 290 292 276 271 281 276 275 277 281 288 295 298 299 303 309 311
321 324 323 320 317 314 313 316 315 315 313 310 310 311 307 299 287 300 296 276 277 280 283 285 288 278 275 281 279 273 271 270 277 285 288 292 298 304
322 322 321 319 318 316 318 319 320 316 313 316 324 324 311 304 299 305 301 279 274 279 286 282 282 282 280 279 279 282 278 277 279 281 283 289 297 303
323 324 324 323 321 321 324 324 329 339 342 335 330 317 310 304 304 306 300 287 287 289 288 285 281 283 283 282 282 281 282 284 283 283 285 290 296 300
328 326 326 325 324 325 326 331 330 330 333 334 329 323 319 315 311 309 305 301 297 297 298 296 294 289 287 285 283 281 280 278 280 286 290 294 297 304
328 326 326 329 325 326 332 333 335 334 334 334 332 329 327 324 325 326 316 307 302 301 301 305 305 302 296 293 293 287 282 283 279 279 286 294 302 307
328 327 330 329 331 337 339 338 338 338 338 339 338 334 332 328 327 323 318 313 310 306 304 306 306 304 300 297 295 294 291 288 286 281 285 294 303 308
327 330 332 336 343 343 343 343 343 345 346 343 340 338 338 334 328 321 318 318 314 311 310 312 310 304 301 300 300 298 293 289 287 286 287 293 304 313
330 333 338 347 346 345 344 343 344 347 346 343 341 342 340 336 331 327 324 321 317 316 314 315 314 312 307 301 297 299 291 285 283 286 293 296 307 316
334 339 344 346 345 343 342 343 346 346 345 343 339 339 339 335 331 329 327 324 322 318 316 315 315 313 310 307 302 294 288 283 277 276 288 300 313 316
339 341 343 345 344 346 347 348 348 345 343 341 339 338 334 331 329 328 326 324 323 320 317 312 307 305 306 304 302 300 298 293 271 253 265 296 319 338
340 342 343 344 346 348 348 346 346 347 345 342 339 337 337 335 334 332 328 324 321 317 313 311 312 311 309 305 302 299 292 277 253 208 204 283 21 13
Height
5721 5716 5711 5707 5703 5699 5695 5692 5690 5686 5681 5677 5675 5672 5669 5666 5663 5661 5658 5655 5654 5653 5652 5649 5645 5643 5643 5643 5643 5643 5643 5643 5644 5645 5646 5647 5647 5647
5717 5710 5705 5701 5696 5692 5689 5685 5682 5680 5678 5672 5668 5664 5661 5657 5654 5651 5648 5645 5643 5640 5639 5636 5634 5631 5629 5628 5628 5627 5627 5628 5629 5628 5627 5627 5627 5628
5709 5704 5698 5695 5690 5687 5683 5678 5673 5670 5668 5664 5659 5655 5652 5649 5646 5642 5638 5635 5632 5628 5625 5623 5620 5617 5616 5614 5613 5611 5610 5610 5611 5611 5610 5609 5608 5606
5704 5698 5692 5687 5684 5680 5676 5671 5666 5662 5658 5655 5650 5646 5643 5640 5636 5632 5628 5623 5619 5615 5610 5608 5605 5603 5601 5600 5598 5597 5596 5595 5596 5596 5595 5596 5593 5590
5697 5691 5685 5682 5677 5673 5668 5664 5659 5654 5649 5645 5641 5637 5633 5629 5625 5620 5616 5611 5606 5600 5596 5591 5588 5587 5585 5584 5584 5584 5585 5586 5585 5584 5583 5582 5580 5577
5690 5685 5679 5674 5671 5666 5660 5655 5650 5646 5642 5636 5631 5626 5622 5617 5612 5607 5603 5596 5591 5585 5581 5578 5577 5575 5575 5575 5575 5575 5575 5575 5574 5573 5572 5570 5568 5566
5685 5679 5674 5668 5662 5656 5652 5647 5642 5637 5633 5627 5621 5616 5610 5605 5599 5593 5588 5583 5577 5575 5570 5569 5568 5568 5568 5567 5566 5566 5565 5564 5563 5561 5560 5558 5556 5554
5679 5673 5668 5663 5656 5650 5645 5639 5632 5627 5623 5617 5610 5604 5598 5593 5587 5581 5577 5572 5568 5566 5563 5562 5562 5561 5560 5559 5558 5557 5555 5554 5553 5552 5550 5548 5546 5543
5674 5668 5663 5655 5648 5641 5636 5629 5623 5616 5610 5605 5598 5591 5584 5579 5573 5568 5565 5562 5560 5559 5557 5556 5556 5554 5553 5552 5551 5551 5550 5549 5547 5545 5544 5542 5539 5536
5667 5661 5656 5650 5642 5634 5627 5620 5613 5606 5599 5593 5585 5577 5570 5566 5561 5558 5556 5554 5552 5553 5551 5550 5549 5548 5548 5547 5546 5545 5544 5543 5541 5540 5538 5536 5533 5530
5661 5654 5648 5642 5636 5628 5620 5612 5603 5595 5586 5578 5571 5564 5558 5555 5552 5550 5549 5548 5546 5546 5545 5545 5544 5542 5543 5541 5541 5540 5539 5537 5536 5534 5532 5530 5527 5524
5654 5647 5641 5633 5625 5615 5607 5600 5591 5582 5573 5564 5558 5553 5548 5545 5544 5544 5543 5541 5540 5540 5539 5538 5539 5537 5536 5537 5536 5535 5534 5532 5529 5528 5526 5524 5522 5518
5645 5638 5632 5624 5616 5606 5597 5588 5578 5568 5560 5553 5548 5544 5541 5541 5540 5539 5537 5536 5535 5534 5535 5534 5533 5532 5531 5530 5530 5529 5528 5527 5525 5523 5521 5519 5517 5514
5638 5631 5624 5617 5607 5596 5587 5576 5566 5558 5551 5546 5543 5540 5539 5537 5536 5534 5532 5531 5531 5531 5530 5530 5529 5527 5526 5525 5524 5523 5522 5521 5519 5518 5516 5514 5512 5508
5633 5624 5616 5607 5597 5587 5577 5568 5560 5554 5548 5543 5540 5538 5536 5534 5532 5530 5528 5527 5526 5525 5524 5523 5523 5521 5520 5519 5518 5517 5516 5514 5513 5511 5510 5508 5506 5503
5625 5617 5608 5598 5587 5578 5570 5563 5558 5552 5546 5542 5538 5536 5533 5530 5528 5526 5524 5524 5522 5520 5519 5518 5518 5516 5515 5513 5512 5511 5509 5509 5507 5505 5504 5502 5500 5498
5617 5609 5602 5592 5580 5571 5566 5561 5554 5549 5544 5540 5537 5534 5531 5528 5525 5523 5521 5520 5519 5518 5515 5513 5512 5511 5508 5507 5505 5504 5503 5502 5502 5500 5499 5497 5495 5492
5612 5603 5594 5585 5576 5569 5563 5557 5552 5546 5542 5538 5535 5532 5528 5525 5522 5520 5518 5517 5515 5513 5511 5509 5508 5505 5503 5500 5500 5499 5497 5496 5495 5495 5494 5493 5490 5488
5608 5597 5587 5579 5573 5567 5561 5556 5550 5544 5540 5536 5533 5529 5526 5523 5520 5518 5516 5513 5511 5508 5506 5504 5502 5500 5498 5495 5493 5493 5492 5491 5490 5490 5489 5488 5486 5484
5601 5592 5582 5576 5571 5565 5560 5554 5548 5543 5538 5535 5531 5527 5523 5520 5517 5515 5512 5510 5507 5504 5501 5498 5496 5495 5493 5492 5489 5487 5486 5486 5485 5485 5484 5483 5482 5480
5596 5586 5578 5574 5569 5563 5557 5552 5546 5541 5537 5533 5529 5525 5521 5517 5514 5511 5508 5505 5503 5500 5497 5494 5491 5489 5486 5484 5483 5482 5480 5479 5480 5480 5480 5480 5479 5478
5591 5582 5577 5572 5567 5561 5555 5550 5544 5540 5535 5530 5526 5522 5518 5514 5511 5508 5505 5502 5498 5495 5492 5489 5486 5483 5481 5478 5476 5475 5474 5473 5473 5475 5477 5478 5477 5476
5587 5580 5576 5571 5565 5559 5553 5547 5542 5537 5532 5528 5524 5520 5516 5512 5508 5505 5501 5498 5495 5491 5487 5484 5481 5478 5475 5472 5470 5468 5467 5467 5467 5470 5474 5476 5476 5475